KC2DUX-10 Weather Reports


time (UTC)temp
F
wind
direction
speed
knots
gust
knots
rain 1hr
in
rain 24hr
in
rain mn
in
humidity
%
barometer
mb
20211027193526 65 18 13.9 17.4 0.00 0.01 0.00 70 1005.3
20211027193050 65 9 11.3 17.4 0.00 0.01 0.00 72 1005.2
20211027192519 65 5 13.9 18.2 0.00 0.01 0.00 71 1005.1
20211027192032 64 15 13.9 18.2 0.00 0.01 0.00 72 1005.0
20211027191525 64 360 11.3 17.4 0.00 0.01 0.00 71 1005.0
20211027191020 64 13 13.0 17.4 0.00 0.01 0.00 72 1005.0
20211027190524 64 9 11.3 18.2 0.00 0.01 0.00 71 1004.9
20211027190051 64 355 13.0 18.2 0.00 0.01 0.00 71 1004.7
20211027185515 64 339 12.2 15.6 0.00 0.01 0.00 71 1004.7
20211027185035 64 11 12.2 16.5 0.00 0.01 0.00 72 1004.7
20211027184545 64 360 12.2 16.5 0.00 0.01 0.00 73 1004.8
20211027184013 64 5 11.3 16.5 0.00 0.01 0.00 74 1004.8
20211027183513 64 10 13.0 20.0 0.00 0.01 0.00 73 1004.7
20211027183023 64 355 15.6 20.0 0.00 0.01 0.00 73 1004.7
20211027182511 64 342 13.9 17.4 0.00 0.01 0.00 73 1004.6
20211027182022 64 340 13.9 19.1 0.00 0.01 0.00 73 1004.6
20211027181521 64 351 13.9 19.1 0.00 0.01 0.00 73 1004.6
20211027181015 64 350 14.8 19.1 0.00 0.01 0.00 72 1004.6
20211027180515 64 336 14.8 18.2 0.00 0.01 0.00 73 1004.5
20211027180033 64 346 12.2 18.2 0.00 0.01 0.00 73 1004.5
20211027175508 64 338 13.0 18.2 0.00 0.01 0.00 73 1004.5
20211027175006 64 333 13.9 15.6 0.00 0.01 0.00 71 1004.4
20211027174508 64 332 10.4 16.5 0.00 0.01 0.00 71 1004.4
20211027174007 64 344 10.4 15.6 0.00 0.01 0.00 72 1004.4
20211027173507 64 355 11.3 18.2 0.00 0.01 0.00 71 1004.4
20211027173005 64 348 12.2 18.2 0.00 0.01 0.00 71 1004.4
20211027172509 64 355 13.0 20.9 0.00 0.01 0.00 70 1004.3
20211027172004 64 5 14.8 20.9 0.00 0.01 0.00 71 1004.3
20211027171504 64 9 15.6 21.7 0.00 0.01 0.00 70 1004.2
20211027171008 64 336 15.6 23.5 0.00 0.01 0.00 71 1004.2
20211027170502 64 333 16.5 23.5 0.00 0.01 0.00 70 1004.3
20211027170001 64 346 13.9 20.0 0.00 0.01 0.00 73 1004.3
20211027165609 64 355 15.6 26.1 0.00 0.01 0.00 72 1004.2
20211027165505 64 347 13.9 26.1 0.00 0.01 0.00 72 1004.2
20211027165104 64 348 19.1 26.1 0.00 0.01 0.00 72 1004.1
20211027164655 64 360 13.0 20.0 0.00 0.01 0.00 72 1004.1
20211027164105 64 344 15.6 22.6 0.00 0.01 0.00 72 1004.0
20211027163603 64 355 17.4 22.6 0.00 0.01 0.00 71 1004.0
20211027163134 64 355 16.5 21.7 0.00 0.01 0.00 72 1004.0
20211027162600 64 344 13.9 20.9 0.00 0.01 0.00 73 1004.0
20211027162102 64 345 17.4 21.7 0.00 0.01 0.00 73 1004.0
20211027161635 64 344 15.6 22.6 0.00 0.01 0.00 73 1004.0
20211027161118 64 346 17.4 25.2 0.00 0.01 0.00 72 1004.0
20211027160556 64 336 19.1 25.2 0.00 0.01 0.00 72 1003.9
20211027160202 64 343 15.6 22.6 0.00 0.01 0.00 71 1003.9
20211027155553 64 345 14.8 21.7 0.00 0.01 0.00 72 1003.9
20211027154637 64 328 13.9 23.5 0.00 0.01 0.00 72 1003.8
20211027154051 63 315 14.8 23.5 0.00 0.01 0.00 71 1003.6
20211027153604 63 343 14.8 23.5 0.00 0.01 0.00 74 1003.7
20211027153117 63 337 15.6 22.6 0.00 0.01 0.00 73 1003.5
20211027152614 63 338 13.9 20.9 0.00 0.01 0.00 74 1003.5
20211027152051 63 344 13.0 21.7 0.00 0.01 0.00 75 1003.5
20211027151619 63 337 16.5 21.7 0.00 0.01 0.00 75 1003.4
20211027151109 62 327 13.9 20.9 0.00 0.01 0.00 75 1003.4
20211027150543 62 355 16.5 20.9 0.00 0.01 0.00 75 1003.3
20211027150044 62 332 14.8 21.7 0.00 0.01 0.00 76 1003.3
20211027145557 62 330 17.4 21.7 0.00 0.01 0.00 76 1003.2
20211027145045 62 335 13.0 22.6 0.00 0.01 0.00 76 1003.2
20211027144602 62 338 17.4 23.5 0.00 0.01 0.00 76 1003.0
20211027144040 62 324 15.6 23.5 0.00 0.01 0.00 77 1003.0
20211027143551 61 332 18.2 23.5 0.00 0.01 0.00 77 1002.9
20211027143153 61 325 15.6 20.0 0.00 0.01 0.00 77 1002.9
20211027142542 61 329 14.8 21.7 0.00 0.01 0.00 78 1002.9
20211027142046 61 323 13.9 22.6 0.00 0.01 0.00 78 1002.9
20211027141545 61 328 15.6 23.5 0.00 0.01 0.00 79 1002.7
20211027141037 61 306 18.2 26.1 0.00 0.01 0.00 78 1002.6
20211027140536 61 316 17.4 26.1 0.00 0.01 0.00 78 1002.7
20211027140118 60 336 17.4 22.6 0.00 0.01 0.00 78 1002.6
20211027135533 60 331 14.8 25.2 0.00 0.01 0.00 79 1002.6
20211027135034 60 313 19.1 25.2 0.00 0.01 0.00 79 1002.5
20211027134549 60 331 14.8 26.1 0.00 0.01 0.00 79 1002.6
20211027134033 60 323 15.6 26.1 0.00 0.01 0.00 79 1002.5
20211027133534 60 309 17.4 24.3 0.00 0.01 0.00 79 1002.5
20211027133047 60 329 15.6 25.2 0.00 0.01 0.00 79 1002.4
20211027132531 60 311 15.6 24.3 0.00 0.01 0.00 80 1002.3
20211027132031 60 314 15.6 23.5 0.00 0.01 0.00 80 1002.4
20211027131553 60 321 15.6 25.2 0.00 0.01 0.00 80 1002.2
20211027131036 60 325 19.1 25.2 0.00 0.01 0.00 80 1002.2
20211027130545 60 317 16.5 26.9 0.00 0.01 0.00 80 1002.2
20211027130051 60 313 20.0 26.9 0.00 0.01 0.00 80 1002.1
20211027125529 60 321 19.1 23.5 0.00 0.01 0.00 80 1002.1
20211027125036 60 314 17.4 22.6 0.00 0.01 0.00 80 1002.1
20211027124611 60 317 16.5 24.3 0.00 0.01 0.00 80 1002.3
20211027124104 60 340 15.6 26.9 0.00 0.01 0.00 80 1002.1
20211027123525 60 341 18.2 26.9 0.00 0.01 0.00 80 1001.9
20211027123032 59 336 17.4 24.3 0.00 0.01 0.00 81 1001.9
20211027122525 59 314 17.4 26.1 0.00 0.01 0.00 81 1001.8
20211027122031 59 333 18.2 26.1 0.00 0.01 0.00 81 1001.7
20211027121532 59 313 19.1 26.9 0.00 0.01 0.00 81 1001.6
20211027121021 59 319 18.2 26.9 0.00 0.01 0.00 82 1001.6
20211027120522 59 315 16.5 25.2 0.00 0.01 0.00 82 1001.6
20211027120025 59 306 16.5 23.5 0.00 0.01 0.00 84 1001.5
20211027115531 58 311 15.6 23.5 0.00 0.01 0.00 84 1001.5
20211027115019 58 316 16.5 23.5 0.00 0.01 0.00 83 1001.5
20211027114540 58 315 17.4 22.6 0.00 0.01 0.00 84 1001.4
20211027114041 58 316 15.6 22.6 0.00 0.01 0.00 84 1001.4
20211027113525 58 294 18.2 22.6 0.00 0.01 0.00 84 1001.3
20211027113039 58 309 15.6 21.7 0.00 0.01 0.00 84 1001.3
20211027112515 58 329 13.9 21.7 0.00 0.01 0.00 85 1001.2
20211027112015 58 309 16.5 24.3 0.00 0.01 0.00 85 1001.2
20211027111517 58 305 14.8 21.7 0.00 0.01 0.00 85 1000.9
20211027111018 58 302 16.5 24.3 0.00 0.01 0.00 85 1000.9
20211027110514 58 312 15.6 24.3 0.00 0.01 0.00 85 1000.9
20211027110022 58 291 16.5 21.7 0.00 0.01 0.00 84 1001.0
20211027105530 58 316 15.6 22.6 0.00 0.01 0.00 84 1000.9
20211027105018 57 305 16.5 22.6 0.00 0.01 0.00 85 1000.9
20211027104525 57 306 13.9 22.6 0.00 0.01 0.00 85 1000.9
20211027104007 57 308 16.5 22.6 0.00 0.01 0.00 86 1000.8
20211027103511 57 304 16.5 22.6 0.00 0.01 0.00 86 1000.8
20211027103019 56 295 14.8 19.1 0.00 0.01 0.00 86 1000.7
20211027102521 56 319 13.9 20.9 0.00 0.01 0.00 86 1000.8
20211027102004 56 311 16.5 20.9 0.00 0.01 0.00 87 1000.6
20211027101504 56 312 15.6 20.9 0.00 0.01 0.00 87 1000.6
20211027101003 56 316 15.6 20.0 0.00 0.01 0.00 87 1000.7
20211027100504 56 331 13.9 21.7 0.00 0.01 0.00 87 1000.6
20211027100003 56 308 14.8 20.0 0.00 0.01 0.00 87 1000.6
20211027095502 55 309 14.8 18.2 0.00 0.03 0.00 87 1000.6
20211027095002 55 313 13.0 18.2 0.00 0.03 0.00 88 1000.5
20211027094503 55 336 11.3 16.5 0.00 0.03 0.00 88 1000.6
20211027093600 55 315 13.9 18.2 0.00 0.03 0.00 88 1000.6
20211027093125 55 325 13.0 18.2 0.00 0.03 0.00 88 1000.5
20211027092559 55 305 13.9 20.9 0.00 0.03 0.00 88 1000.6
20211027092103 55 310 13.0 20.9 0.00 0.03 0.00 89 1000.7
20211027091720 55 312 13.9 20.0 0.00 0.03 0.00 89 1000.5
20211027091057 55 313 13.0 20.0 0.00 0.03 0.00 89 1000.5
20211027090637 55 317 12.2 20.9 0.00 0.03 0.00 89 1000.4
20211027090140 54 306 15.6 20.9 0.00 0.03 0.00 89 1000.4
20211027085606 54 304 15.6 21.7 0.00 0.08 0.00 89 1000.4
20211027085058 54 293 14.8 21.7 0.00 0.08 0.00 89 1000.5
20211027084622 54 304 14.8 20.9 0.00 0.08 0.00 89 1000.4
20211027084128 54 333 15.6 19.1 0.00 0.08 0.00 88 1000.5
20211027083555 54 333 14.8 22.6 0.00 0.08 0.00 87 1000.5
20211027083115 55 327 15.6 22.6 0.00 0.08 0.00 86 1000.3
20211027082617 55 321 16.5 22.6 0.00 0.08 0.00 85 1000.3
20211027082105 55 333 17.4 22.6 0.00 0.08 0.00 85 1000.2
20211027081703 55 333 13.0 20.0 0.00 0.08 0.00 85 1000.1
20211027081051 54 326 12.2 20.0 0.00 0.08 0.00 85 1000.0
20211027080550 54 317 13.9 20.9 0.00 0.08 0.00 85 999.9
20211027080218 54 323 16.5 20.9 0.00 0.08 0.00 85 999.9
20211027075549 54 310 12.2 20.0 0.00 0.18 0.00 85 999.9
20211027075109 54 331 13.9 21.7 0.00 0.18 0.00 85 999.8
20211027074637 54 311 13.9 21.7 0.00 0.18 0.00 85 999.8
20211027074047 54 317 13.9 21.7 0.00 0.18 0.00 86 999.8
20211027073554 54 315 15.6 21.7 0.00 0.18 0.00 85 999.8
20211027073050 54 319 14.8 20.9 0.00 0.18 0.00 85 999.7
20211027072546 54 308 14.8 20.9 0.00 0.18 0.00 85 999.6
20211027072105 54 307 14.8 23.5 0.00 0.18 0.00 85 999.6
20211027071706 53 331 17.4 23.5 0.00 0.18 0.00 85 999.6
20211027071045 53 319 14.8 22.6 0.00 0.18 0.00 86 999.7
20211027070544 53 319 15.6 22.6 0.00 0.18 0.00 85 999.6
20211027070110 54 328 17.4 23.5 0.00 0.18 0.00 84 999.6
20211027065615 53 297 16.5 25.2 0.00 0.43 0.00 84 999.6
20211027065106 53 319 19.1 25.2 0.00 0.43 0.00 83 999.5
20211027064603 53 299 18.2 25.2 0.00 0.43 0.00 84 999.4
20211027064043 53 315 19.1 26.9 0.00 0.43 0.00 83 999.3
20211027063540 53 314 19.1 26.9 0.00 0.43 0.00 83 999.2
20211027063105 53 314 18.2 26.1 0.00 0.43 0.00 83 999.2
20211027062538 54 319 19.1 25.2 0.00 0.43 0.00 83 999.2
20211027062044 54 310 20.9 25.2 0.00 0.43 0.00 83 999.0
20211027061613 54 292 16.5 22.6 0.00 0.43 0.00 83 999.1
20211027061041 54 316 17.4 24.3 0.00 0.43 0.00 83 999.0
20211027060537 53 297 15.6 24.3 0.00 0.43 0.00 82 999.0
20211027060104 53 321 18.2 26.1 0.00 0.43 0.00 82 999.1
20211027055538 53 301 20.0 26.1 0.00 0.57 0.00 83 998.9
20211027055105 53 307 17.4 25.2 0.00 0.57 0.00 83 999.0
20211027054559 52 301 18.2 26.1 0.00 0.57 0.00 84 998.9
20211027054039 52 290 16.5 27.8 0.00 0.57 0.00 85 999.0
20211027053533 52 285 19.1 27.8 0.00 0.57 0.00 83 999.0
20211027053123 53 302 20.0 27.8 0.00 0.57 0.00 82 999.1
20211027052531 54 315 19.1 29.5 0.00 0.57 0.00 80 999.0
20211027052048 54 306 20.9 29.5 0.00 0.57 0.00 79 999.0
20211027051540 54 310 20.0 27.8 0.00 0.57 0.00 78 998.8
20211027051030 54 309 18.2 27.8 0.00 0.57 0.00 78 998.8
20211027050551 54 310 20.0 33.0 0.00 0.57 0.00 77 998.8
20211027050039 54 306 20.0 33.0 0.00 0.57 0.00 77 998.8
20211027045526 54 311 23.5 31.3 0.00 0.60 0.00 77 998.7
20211027045029 54 306 24.3 31.3 0.00 0.60 0.00 77 998.6
20211027044611 54 305 20.0 31.3 0.00 0.60 0.00 77 998.6
20211027044025 54 296 21.7 31.3 0.00 0.60 0.00 76 998.6
20211027043523 54 287 17.4 30.4 0.00 0.60 0.00 77 998.6
20211027043028 53 319 23.5 31.3 0.00 0.60 0.00 76 998.5
20211027042525 53 300 23.5 32.2 0.00 0.60 0.00 76 998.6
20211027042021 53 299 21.7 32.2 0.00 0.60 0.00 76 998.6
20211027041618 53 322 21.7 30.4 0.00 0.60 0.00 76 998.7
20211027041018 53 297 20.0 29.5 0.00 0.60 0.00 76 998.7
20211027040521 53 303 22.6 29.5 0.00 0.60 0.00 75 998.6
20211027040017 53 289 20.9 31.3 0.00 0.60 0.00 75 998.7
20211027035524 53 280 21.7 31.3 0.00 0.60 0.60 75 998.7
20211027035038 53 306 20.0 34.8 0.00 0.60 0.60 76 998.6
20211027034542 53 309 23.5 34.8 0.00 0.60 0.60 75 998.6
20211027034013 53 294 21.7 34.8 0.00 0.60 0.60 74 998.6
20211027033512 53 296 22.6 31.3 0.00 0.60 0.60 75 998.7
20211027033040 53 286 20.9 32.2 0.00 0.60 0.60 74 998.8
20211027032511 53 293 24.3 32.2 0.00 0.60 0.60 74 998.7
20211027032011 53 306 23.5 31.3 0.00 0.60 0.60 74 998.8
20211027031510 53 322 25.2 35.6 0.00 0.60 0.60 74 998.9
20211027031014 53 288 23.5 35.6 0.00 0.60 0.60 74 998.9
20211027030509 53 306 21.7 35.6 0.00 0.60 0.60 74 998.9
20211027030009 53 316 20.0 35.6 0.00 0.60 0.60 74 999.0
20211027025508 54 298 25.2 35.6 0.00 0.67 0.60 73 999.0
20211027025023 54 284 25.2 35.6 0.00 0.67 0.60 73 999.0
20211027024515 54 288 20.9 29.5 0.00 0.67 0.60 74 999.1
20211027024006 54 311 21.7 34.8 0.00 0.67 0.60 74 999.1
20211027023505 54 299 21.7 34.8 0.00 0.67 0.60 73 999.1
20211027023005 54 310 20.9 29.5 0.00 0.67 0.60 73 999.1
20211027022504 54 285 20.9 33.0 0.00 0.67 0.60 73 999.1
20211027022004 54 292 21.7 33.0 0.00 0.67 0.60 73 999.2
20211027021504 54 313 20.0 29.5 0.00 0.67 0.60 74 999.2
20211027021006 54 290 21.7 32.2 0.00 0.67 0.60 74 999.3
20211027020505 54 296 21.7 32.2 0.00 0.67 0.60 73 999.3
20211027020007 54 302 21.7 29.5 0.00 0.67 0.60 75 999.2
20211027015502 54 309 22.6 31.3 0.00 0.67 0.60 74 999.2
20211027015004 54 295 18.2 27.8 0.00 0.67 0.60 75 999.3
20211027014100 54 297 21.7 28.7 0.00 0.67 0.60 75 999.3
20211027013600 54 290 20.9 28.7 0.00 0.67 0.60 75 999.3
20211027013217 54 311 20.9 30.4 0.00 0.67 0.60 75 999.4
20211027012559 54 286 17.4 28.7 0.00 0.67 0.60 76 999.4
20211027012059 54 301 17.4 24.3 0.00 0.67 0.60 78 999.4
20211027011740 54 281 16.5 28.7 0.00 0.67 0.60 77 999.4
20211027011103 54 309 19.1 28.7 0.00 0.67 0.60 77 999.4
20211027010604 54 321 19.1 27.8 0.00 0.67 0.60 78 999.4
20211027010155 54 296 19.1 27.8 0.00 0.67 0.60 78 999.4
20211027005556 54 295 17.4 28.7 0.00 0.67 0.60 79 999.4
20211027005056 54 291 19.1 30.4 0.00 0.67 0.60 78 999.5
20211027004711 54 292 20.9 30.4 0.00 0.67 0.60 78 999.4
20211027004057 54 281 20.0 31.3 0.00 0.67 0.60 76 999.4
20211027003602 54 294 23.5 31.3 0.00 0.67 0.60 76 999.3
20211027003130 54 302 20.0 29.5 0.00 0.67 0.60 76 999.3
20211027002551 54 289 18.2 28.7 0.00 0.67 0.60 76 999.3
20211027002057 54 292 20.0 32.2 0.00 0.67 0.60 76 999.3
20211027001629 54 298 23.5 32.2 0.00 0.67 0.60 75 999.2
20211027001051 54 314 20.9 34.8 0.00 0.67 0.60 77 999.3
20211027000550 54 275 26.1 34.8 0.00 0.67 0.60 75 999.2
20211027000127 55 296 21.7 32.2 0.00 0.67 0.60 76 999.2
20211026235548 55 294 17.4 34.8 0.00 0.79 0.60 76 999.2
20211026235058 55 294 23.5 34.8 0.01 0.79 0.60 76 999.2
20211026234630 55 306 20.0 32.2 0.01 0.79 0.60 76 999.1
20211026234050 55 286 22.6 33.9 0.01 0.79 0.60 75 999.0
20211026233544 55 290 24.3 33.9 0.01 0.79 0.60 75 999.0
20211026233110 56 306 19.1 31.3 0.01 0.79 0.60 74 999.1
20211026232548 56 293 22.6 32.2 0.01 0.79 0.60 74 999.0
20211026232041 56 277 21.7 32.2 0.01 0.79 0.60 74 999.0
20211026231612 56 290 20.0 31.3 0.01 0.79 0.60 75 999.0
20211026231045 56 294 20.0 33.0 0.01 0.79 0.60 72 998.9
20211026230540 56 278 22.6 36.5 0.01 0.79 0.60 72 998.8
20211026230104 56 288 26.9 37.4 0.01 0.79 0.60 72 998.7
20211026225542 56 300 23.5 37.4 0.01 0.82 0.60 71 998.7
20211026225037 57 293 23.5 36.5 0.00 0.81 0.59 73 998.7
20211026224557 57 288 21.7 33.0 0.00 0.81 0.59 72 998.6
20211026224049 57 306 20.9 33.0 0.00 0.81 0.59 74 998.6
20211026223542 57 323 19.1 33.0 0.00 0.81 0.59 72 998.6
20211026223153 57 267 18.2 38.2 0.00 0.81 0.59 72 998.5
20211026222535 57 300 20.9 37.4 0.00 0.81 0.59 71 998.4
20211026222034 57 292 26.1 35.6 0.00 0.81 0.59 70 998.2
20211026221553 58 303 25.2 35.6 0.00 0.81 0.59 71 998.2
20211026221036 58 299 26.1 33.9 0.00 0.81 0.59 71 998.1
20211026220536 58 302 25.2 32.2 0.00 0.81 0.59 71 998.1
20211026220127 58 321 23.5 38.2 0.00 0.81 0.59 72 998.1
20211026215528 58 321 24.3 38.2 0.00 0.81 0.59 70 998.0
20211026215027 58 302 22.6 34.8 0.00 0.81 0.59 72 998.0
20211026214034 59 298 22.6 31.3 0.00 0.81 0.59 72 997.9
20211026213533 59 318 22.6 31.3 0.00 0.81 0.59 72 997.8
20211026213031 59 306 22.6 31.3 0.00 0.81 0.59 72 997.9
20211026212522 59 302 20.9 31.3 0.00 0.81 0.59 71 997.7
20211026212021 59 304 22.6 34.8 0.00 0.81 0.59 71 997.5
20211026211521 60 282 24.3 34.8 0.00 0.81 0.59 71 997.5
20211026211019 60 294 23.5 32.2 0.00 0.81 0.59 70 997.4
20211026210534 60 301 19.1 32.2 0.00 0.81 0.59 71 997.4
20211026210025 61 300 19.1 31.3 0.00 0.81 0.59 73 997.2
20211026205521 61 281 20.9 32.2 0.00 0.81 0.59 71 997.1
20211026205022 61 305 20.0 32.2 0.00 0.81 0.59 71 997.1
20211026204525 61 294 22.6 33.0 0.00 0.81 0.59 70 997.0
20211026204013 61 301 25.2 33.0 0.00 0.81 0.59 70 997.0
20211026203523 62 286 16.5 31.3 0.00 0.81 0.59 73 996.8
20211026203024 62 286 22.6 33.9 0.00 0.81 0.59 71 996.6
20211026202513 63 302 24.3 33.9 0.00 0.81 0.59 70 996.5
20211026202012 63 282 20.0 32.2 0.00 0.81 0.59 71 996.4
20211026201518 63 275 23.5 32.2 0.00 0.81 0.59 71 996.3
20211026201012 64 279 24.3 31.3 0.00 0.81 0.59 69 996.2
20211026200509 64 304 22.6 32.2 0.00 0.81 0.59 71 996.0
20211026200038 64 281 21.7 34.8 0.00 0.81 0.59 71 995.9
20211026195508 65 279 20.9 34.8 0.00 0.81 0.59 72 995.8
20211026195008 65 286 24.3 33.9 0.00 0.81 0.59 71 995.8
20211026194508 66 270 21.7 32.2 0.00 0.81 0.59 72 995.7
20211026194007 67 277 21.7 32.2 0.00 0.81 0.59 72 995.6